Location: Barcelona
(41.3829°N, 2.1774°E)
Time: 21:16:20
(UTC+00:00)

ISS - Pass Details

Date: 07 July 2025
Orbit: 413 x 417 km, 51.6° (Epoch: 13 July)

Event Time Altitude Azimuth Distance (km) Brightness Sun altitude
Rises 23:10:51 0° 280° (W) 2,350 0.3 -25.3°
Reaches altitude 10° 23:13:25 10° 301° (WNW) 1,490 -0.5 -25.4°
Maximum altitude 23:15:47 18° 346° (NNW) 1,109 -0.8 -25.5°
Drops below altitude 10° 23:18:10 10° 31° (NNE) 1,494 -0.4 -25.5°
Sets 23:20:45 0° 52° (NE) 2,360 0.4 -25.6°
